Lid_Strength_Index
-0 -0 0 0 0 -1 -0 -1 -1 -2 -2 -1 -1 -1 -1 -1 -1 -1 -1 -1 -0 -1 -1 -1 -0 -1 -0 -0 -1 -1 -0 -0 2 1 -1 -1 -1 -1 -2 -2 -2 -2 -2
-1 -1 -1 0 1 -1 -1 -1 -2 -1 -1 -1 -1 -1 -1 -1 -1 -1 -1 -1 -0 -0 -0 -1 -0 -0 -1 -2 -0 -0 0 -1 0 1 0 0 -1 -1 -2 -1 -1 -1 -2
-1 -0 -0 -0 -0 -0 -1 -1 -1 -1 -1 -1 -1 -1 -1 -1 -1 -1 -1 -1 -1 -1 -1 -0 -0 -0 -0 -0 -0 -1 -0 -1 -1 0 1 -1 -1 -1 -1 -1 -1 -2 -2
-0 -0 0 -0 -0 -1 -1 -1 -1 -1 0 -0 -1 -1 -1 -1 -1 -1 -1 -1 -1 -1 -1 -1 -1 -0 -0 -0 -0 -1 -1 -1 -0 -0 -0 -0 0 -1 -1 0 0 -0 -1
0 0 0 -1 -1 -1 -1 -1 -1 -1 -1 -1 -0 -0 -1 -0 0 -1 -1 -1 -1 -1 -1 -1 -1 -0 1 1 -0 -1 -1 -0 -0 -0 0 1 0 1 0 -0 0 0 -0
0 1 -0 -1 -1 -1 -1 -1 -1 -1 -1 -1 -1 -0 -0 -0 4 3 1 -1 -1 -0 -0 -1 -1 0 1 3 2 2 1 0 1 1 1 1 0 0 0 1 1 1 2
0 0 -0 -0 -0 -0 -0 -0 -0 -1 -1 -1 -1 -1 -1 -0 6 6 4 -1 -1 -1 -1 -1 -1 -0 -0 -1 2 3 2 2 2 -0 1 1 1 -0 -0 0 0 1 1
0 0 0 0 0 1 -0 -0 -1 -2 -1 -1 -1 -1 -0 2 7 6 5 -1 -1 -1 -1 -1 -1 -1 -1 1 -1 -1 -0 -1 -1 -1 -1 -1 -1 -1 -1 -1 -0 0 -0
0 0 -0 -0 0 1 1 -0 -1 -1 -1 -1 -1 -0 0 -0 7 7 5 -1 -1 -1 -1 -1 -1 -1 6 5 -0 -0 -0 -1 1 2 4 5 5 5 4 0 1 2 2
0 0 -0 -0 0 -0 -0 -0 -1 -1 -1 -1 -1 -1 3 -0 7 7 6 1 -0 0 -1 -1 2 2 6 6 -1 -0 0 0 -0 -0 -1 1 2 1 3 -1 1 3 3
-0 -0 -0 -1 -0 -1 -1 -1 -0 -0 -0 -1 -0 -1 -1 0 1 7 8 2 1 1 1 0 0 6 7 6 7 0 2 2 1 0 1 1 -0 0 1 0 0 2 3
-0 -0 -0 -1 -0 -0 -1 -0 -1 0 0 1 1 0 -0 -1 4 7 8 8 6 0 0 -0 1 7 7 7 4 8 7 6 1 2 2 2 2 1 1 1 0 0 1
-0 -0 -0 -0 -1 -1 -0 -0 0 -0 1 2 3 4 2 1 1 6 7 7 6 3 -0 4 6 6 7 7 7 6 7 2 2 3 3 3 2 2 1 1 0 1 0
0 0 -0 -0 -0 -1 -0 -0 0 0 1 2 2 3 3 2 1 1 2 1 4 3 3 1 3 4 7 4 3 3 1 2 3 3 3 3 2 2 2 2 3 3 3
0 0 0 -0 -0 -0 -0 -0 0 -1 1 1 1 2 2 2 3 7 7 3 3 4 4 0 1 1 1 1 1 1 2 3 3 3 3 3 3 3 3 2 3 3 4
1 1 0 0 0 0 0 0 5 5 7 8 9 7 2 6 9 9 9 9 9 9 3 2 2 1 2 2 2 3 3 4 4 4 4 3 3 3 4 3 3 3 4
0 0 1 1 1 1 0 1 1 3 8 9 10 10 10 9 10 10 9 9 9 9 3 2 2 2 2 2 3 3 4 4 4 4 4 3 3 3 4 4 3 4 4
-0 3 0 0 1 1 0 1 1 1 2 1 8 7 10 10 10 10 10 9 3 6 3 3 3 2 2 2 3 3 4 4 4 4 4 3 3 3 4 4 3 4 4
0 1 1 1 1 1 0 0 1 0 1 1 1 7 8 10 10 10 10 3 3 3 3 3 2 2 2 3 3 3 3 4 5 4 3 3 3 3 4 4 3 8 7
-0 3 3 0 1 1 1 1 1 1 1 1 1 1 1 3 3 2 2 2 3 3 3 3 3 3 3 3 3 4 5 5 4 4 3 3 3 4 4 4 4 4 5
0 0 2 0 0 1 1 1 1 1 1 1 1 1 9 2 2 2 2 2 3 3 3 3 3 3 3 3 4 4 5 5 5 5 4 4 4 4 4 4 4 4 5
0 1 1 1 0 1 1 1 1 1 1 1 1 2 10 2 1 1 1 2 2 2 2 3 3 3 3 4 4 4 5 6 5 5 5 4 4 4 4 4 4 5 5
0 1 1 1 1 3 1 1 1 2 2 1 1 1 1 1 1 1 1 1 1 1 1 2 3 3 3 3 3 4 5 6 5 6 6 5 4 4 4 5 5 6 6
1 1 1 1 1 1 1 1 1 4 2 1 1 1 1 1 1 0 1 1 1 1 1 1 2 3 3 3 3 4 4 4 5 5 5 5 5 5 4 6 6 6 6
2 1 1 1 1 1 1 1 1 1 1 1 2 1 0 0 0 0 0 0 1 1 1 1 1 2 2 2 3 4 9 12 9 12 6 5 5 5 5 6 6 6 6
1 1 1 1 1 1 1 1 1 1 1 1 1 0 1 1 1 1 0 -0 0 1 1 1 1 1 2 2 3 9 12 12 9 13 8 7 7 6 6 6 6 6 6